Temperature
18 18 18 18 18 18 18 18 18 18 18 18 18 18 18 18 18 18 18 18 18 18 18 18 18 17 17 17 17 17 17 17 17 17 17 17 17 17 17 16 16 16 16
18 18 18 18 18 18 18 18 18 18 18 18 18 18 18 18 18 18 18 18 18 17 17 17 17 17 17 17 17 17 17 17 17 17 17 17 17 17 17 16 16 16 16
18 18 18 18 18 18 18 18 18 18 18 18 18 18 18 18 18 18 18 18 17 17 17 17 17 17 17 17 17 17 17 17 17 17 17 17 17 17 17 16 16 16 16
18 18 18 18 18 18 18 18 18 18 18 18 18 18 18 18 18 17 17 17 17 17 17 17 17 17 17 17 17 17 17 17 17 17 17 17 16 16 16 16 16 16 16
18 18 18 18 18 18 18 18 18 18 18 18 18 18 17 17 17 17 17 17 17 17 17 17 17 17 17 17 17 17 17 17 17 17 17 16 16 16 16 16 16 16 16
18 18 18 18 18 18 18 18 18 18 18 18 17 17 17 18 18 17 17 17 17 17 17 17 17 17 17 17 17 17 16 16 17 17 16 16 16 16 16 16 16 16 16
18 18 18 18 18 18 18 18 18 18 17 17 17 17 17 17 18 17 17 17 17 17 17 17 17 17 17 17 17 17 16 16 16 16 16 16 16 16 16 16 16 16 16
18 18 18 18 18 18 18 18 18 18 18 17 17 17 17 17 17 17 17 17 17 17 17 17 17 17 17 17 17 17 16 16 16 16 16 16 16 16 16 16 16 16 16
18 18 18 18 18 18 18 18 18 18 18 18 17 17 17 17 17 17 17 17 17 17 17 17 17 17 17 17 17 17 16 16 16 16 16 16 16 16 16 16 16 16 16
18 18 18 18 18 18 18 18 18 18 17 17 17 17 17 17 17 17 17 17 17 17 17 17 17 17 17 17 17 16 16 16 16 16 16 16 16 16 16 16 16 16 16
18 18 18 18 18 18 18 18 18 17 17 17 17 17 17 17 17 17 17 17 17 17 17 17 17 17 16 16 16 16 16 16 16 16 16 16 16 16 16 16 15 15 15
18 18 18 18 18 18 18 18 18 17 17 17 17 17 17 17 17 17 17 17 17 17 17 16 16 16 16 16 16 16 16 16 16 16 16 16 16 16 15 15 15 15 15
18 18 18 18 18 18 18 18 17 17 17 17 17 17 17 17 17 17 17 17 16 16 16 16 16 16 16 16 16 16 16 16 16 16 16 16 15 15 15 15 15 15 15
18 18 18 18 18 18 17 17 17 17 17 17 17 17 17 17 17 17 17 17 16 16 16 16 16 16 16 15 15 15 15 15 15 15 15 15 15 15 15 14 14 14 14
18 18 18 18 18 18 17 17 17 17 17 17 17 17 17 17 17 17 17 16 16 16 15 15 15 15 15 15 15 15 15 15 15 15 15 15 15 14 14 14 14 14 14
18 18 18 18 18 17 17 17 17 17 17 17 17 17 17 17 17 16 16 16 16 16 15 15 15 15 15 15 15 15 14 14 15 14 14 14 14 14 14 14 14 14 13
18 18 17 17 17 17 17 17 17 17 17 17 16 16 16 16 16 16 16 16 16 16 15 15 15 15 14 14 14 14 14 14 14 14 14 14 14 13 13 13 13 13 13
18 17 17 17 17 17 17 17 17 17 17 16 16 16 16 16 16 16 16 16 16 15 15 15 15 14 14 14 14 14 14 14 13 13 13 13 13 13 13 13 13 12 12
17 17 17 17 17 17 16 17 16 16 16 16 16 16 16 16 16 16 15 15 15 15 15 15 14 14 14 14 14 13 13 13 13 13 13 13 13 13 13 12 12 12 12
17 17 17 16 16 16 16 16 16 16 16 16 16 16 16 16 15 15 15 15 15 15 15 14 14 14 14 13 13 13 13 13 13 13 12 12 12 12 12 12 12 12 12
17 17 16 16 16 16 16 16 16 16 15 15 15 15 15 15 15 15 15 15 15 15 14 14 14 14 13 13 13 13 13 13 12 12 12 12 12 12 12 12 12 12 11
17 16 16 16 16 16 16 16 15 15 15 15 15 15 15 15 15 15 14 14 14 14 14 14 14 13 13 13 13 13 13 12 12 12 12 12 12 12 11 11 11 11 11
16 16 16 16 16 16 15 15 15 15 15 15 15 14 14 14 14 14 14 14 14 13 13 13 13 13 13 13 13 13 12 12 12 12 12 12 11 11 11 11 11 11 11
16 16 16 16 15 15 15 15 15 15 15 14 14 14 14 14 14 14 14 13 13 13 13 13 13 13 13 13 12 12 12 12 12 12 11 11 11 11 11 11 11 11 10
16 16 16 16 15 15 15 15 15 15 14 14 14 14 14 14 14 13 13 13 13 13 13 13 13 13 12 12 12 12 12 12 12 11 11 11 11 11 11 11 11 10 10
16 16 16 16 15 15 15 15 14 14 14 14 14 14 14 13 13 13 13 13 13 13 13 12 12 12 12 12 12 12 12 12 12 11 11 11 11 11 10 11 10 10 10
Wind_Speed
3 3 3 4 4 4 4 3 3 2 2 2 3 4 4 4 6 7 9 14 16 15 15 15 15 15 15 15 14 14 14 13 12 12 12 12 12 12 12 12 12 11 12
4 3 2 2 3 5 5 4 3 3 2 2 3 4 4 4 5 7 7 10 14 15 15 15 15 14 14 14 14 14 14 13 12 12 12 11 12 12 13 12 12 13 12
5 3 2 2 2 4 4 3 3 2 2 2 2 3 3 4 5 6 7 7 9 12 14 14 14 14 14 15 15 15 14 13 13 12 13 13 12 12 12 12 13 13 13
6 4 2 2 3 3 3 2 2 1 1 1 2 2 2 2 4 5 6 7 7 8 11 13 14 14 14 14 14 14 14 14 13 13 14 13 13 13 13 13 12 13 13
6 5 2 1 3 2 2 2 2 2 2 2 2 1 2 2 3 4 4 6 7 7 7 8 11 13 13 13 13 13 13 13 13 13 13 14 13 13 12 12 12 12 12
6 4 3 2 2 2 1 1 2 1 2 2 1 1 1 2 2 3 4 4 6 7 7 6 6 7 10 11 12 12 12 13 13 12 13 13 13 13 13 13 13 12 12
5 4 2 2 2 2 2 2 2 1 1 1 2 1 2 1 2 2 2 2 3 5 6 7 7 6 6 9 11 12 12 13 12 13 13 13 13 13 12 13 13 13 13
5 5 3 3 3 2 2 2 2 2 1 2 2 1 1 2 2 2 2 2 3 3 4 6 7 7 7 6 8 12 13 13 14 14 13 13 13 13 13 13 13 14 13
4 4 4 3 3 3 2 2 2 3 2 1 2 3 2 3 1 2 2 2 2 2 2 3 5 7 7 6 6 8 10 12 12 12 13 13 13 13 14 13 12 12 13
3 4 4 4 3 3 2 2 2 2 3 1 1 1 2 3 2 1 2 1 1 2 2 2 3 5 6 6 6 7 9 9 10 11 11 12 12 12 12 12 12 12 12
2 3 4 3 3 2 2 2 2 2 2 2 2 1 1 0 1 2 1 1 1 1 2 2 3 3 4 6 6 6 7 8 9 9 10 11 11 11 11 11 11 11 11
1 2 4 3 3 2 2 3 3 2 2 2 2 2 2 2 2 2 2 2 1 2 1 1 1 2 4 4 5 6 6 7 8 8 9 10 11 11 10 10 10 9 9
1 2 3 3 2 2 3 2 2 2 2 2 2 2 2 3 3 3 3 2 1 1 1 1 1 2 3 3 3 3 3 5 6 7 7 8 8 8 8 8 8 8 7
2 2 3 3 2 2 2 2 2 2 2 2 2 2 2 2 2 3 3 3 1 1 1 1 1 1 2 3 2 2 1 2 3 4 5 5 6 5 5 5 5 5 4
2 2 2 2 2 2 2 2 1 2 1 2 2 2 1 1 1 2 3 4 4 2 2 2 1 1 1 2 2 2 2 2 3 4 4 5 5 5 5 5 4 4 4
1 2 2 2 2 2 1 1 1 1 1 1 1 1 1 1 0 0 1 2 3 4 2 2 1 0 1 2 3 3 2 2 3 4 5 5 5 6 5 5 6 6 5
2 2 2 2 2 1 1 1 1 1 1 1 1 1 0 0 0 0 1 2 2 3 2 1 0 0 1 2 2 3 2 2 3 4 5 5 6 5 6 6 6 6 6
2 2 2 2 2 1 1 2 2 1 1 1 0 1 0 1 1 1 1 1 2 2 3 3 1 0 1 1 2 2 2 2 2 4 5 6 6 6 6 6 6 6 6
2 2 2 2 2 1 1 2 2 2 2 2 1 1 1 2 1 1 1 1 1 2 2 3 2 1 1 1 2 1 1 1 2 3 4 4 5 6 6 7 7 6 6
3 3 2 2 2 1 1 1 1 2 2 1 1 1 1 2 2 2 2 2 2 3 3 3 2 1 1 1 2 1 1 1 1 2 3 3 4 5 5 6 6 6 6
4 3 3 2 1 1 1 1 2 2 2 2 2 1 1 2 3 2 2 2 3 3 3 3 2 1 1 1 1 1 1 0 1 0 1 1 2 2 3 4 5 5 6
3 3 3 2 2 2 2 3 3 2 2 3 2 1 1 2 2 3 3 4 5 4 4 3 2 3 2 2 2 2 2 1 1 1 1 0 1 1 2 4 5 6 6
3 3 3 3 3 3 3 3 3 3 3 3 3 2 2 1 2 1 2 2 1 3 5 5 5 5 4 4 4 3 3 3 3 2 2 1 1 2 2 4 6 7 7
4 4 4 4 3 3 3 4 3 2 2 3 3 4 4 2 2 3 3 1 0 1 3 4 5 5 5 5 6 5 5 2 0 1 3 2 1 2 2 3 6 7 8
4 4 3 4 4 4 4 5 4 2 2 2 2 3 4 3 4 4 3 2 1 2 2 3 5 6 6 6 6 4 3 3 1 2 2 3 2 1 1 2 5 7 8
4 4 3 4 4 4 5 5 6 3 2 2 2 3 5 5 5 5 4 4 3 3 1 0 1 2 3 4 6 6 6 5 2 2 2 3 2 2 0 2 2 4 5
Wind_Direction
166 166 175 182 191 194 195 204 199 200 191 207 198 179 180 190 184 178 186 189 189 193 195 196 198 200 203 205 206 208 207 206 205 205 208 210 209 209 211 211 211 211 211
156 149 160 170 185 194 199 203 197 187 188 183 182 179 181 193 191 186 184 192 197 200 202 204 204 206 209 210 209 207 205 207 207 206 207 208 209 212 213 215 215 215 215
162 155 154 169 192 192 181 179 185 178 168 159 173 184 182 191 188 188 185 190 203 211 211 211 210 211 211 211 212 209 207 207 208 208 211 212 212 212 214 216 218 217 217
159 151 146 178 186 168 149 148 154 146 153 157 181 197 191 187 191 186 186 193 205 216 219 220 217 215 214 215 216 213 210 209 210 214 216 216 216 217 217 218 219 220 221
157 146 144 161 157 133 145 173 156 161 176 190 194 191 190 191 208 202 191 197 202 210 214 222 223 220 219 219 219 216 215 215 217 218 218 217 216 216 217 216 217 216 216
154 146 138 137 131 121 138 154 153 167 177 186 187 187 221 214 210 211 212 205 204 205 204 207 214 226 224 223 222 218 219 221 219 220 221 221 219 219 218 216 217 217 217
156 147 142 142 133 137 161 153 142 148 176 142 100 18 337 302 235 226 219 194 195 203 202 202 202 208 220 227 224 222 224 228 226 224 224 221 221 219 217 217 218 219 220
166 161 152 159 154 144 141 133 134 140 183 159 147 127 2 332 312 257 233 201 198 187 193 201 198 203 208 211 220 223 227 230 229 229 227 225 223 222 220 219 220 221 221
170 162 162 158 155 148 160 168 153 150 177 226 169 160 164 223 272 308 256 228 206 196 210 194 197 203 205 204 210 221 227 229 230 229 225 222 223 224 222 220 221 221 220
169 164 159 155 157 158 172 191 174 163 156 204 260 208 186 170 171 269 317 283 221 214 224 218 197 199 203 200 207 217 222 222 227 230 229 226 226 225 224 226 228 226 225
176 165 157 154 161 168 180 183 169 161 165 181 195 208 205 154 161 167 247 297 319 261 222 214 194 182 190 196 200 210 216 220 227 231 233 233 230 225 224 225 229 230 231
186 166 166 168 176 180 184 185 188 181 186 183 187 183 171 175 196 174 197 223 244 276 265 244 197 185 193 198 206 204 206 214 221 227 232 234 230 227 228 229 231 231 231
194 206 185 182 187 192 189 181 179 192 189 188 200 205 199 206 192 174 172 199 233 276 335 349 252 170 180 182 199 201 210 209 213 218 221 224 222 223 224 225 225 221 216
194 189 170 174 181 182 189 180 181 204 195 205 221 212 208 217 196 181 173 165 176 300 308 273 345 135 138 161 181 180 171 196 200 200 199 195 186 186 193 199 198 194 186
179 161 159 164 173 171 169 158 185 211 199 214 228 218 208 223 208 193 177 171 167 192 243 243 238 288 156 134 145 140 154 154 158 161 164 164 163 159 159 162 162 160 153
161 144 147 159 163 156 152 146 189 221 185 244 219 166 231 256 263 209 167 165 169 173 197 228 207 221 117 104 103 115 124 116 141 153 159 160 155 152 150 145 142 142 146
151 148 156 155 152 150 149 138 165 156 162 275 286 152 239 210 142 255 122 126 136 144 165 230 188 100 86 83 83 97 99 105 120 134 147 154 155 151 146 143 142 142 142
153 149 147 152 162 164 164 163 180 165 161 180 238 110 244 103 78 63 100 113 135 143 149 159 187 128 101 139 116 109 95 92 125 124 138 147 152 150 146 142 138 137 138
147 139 137 148 169 179 169 176 177 173 168 172 155 137 152 116 103 99 107 113 123 122 129 144 165 157 88 78 74 65 85 70 112 124 129 138 145 147 145 145 143 142 143
155 158 154 161 172 170 149 155 147 147 144 143 137 125 118 133 149 138 127 133 126 114 116 126 128 116 110 77 90 83 41 21 59 105 110 120 137 149 156 157 160 159 157
171 166 158 169 174 166 172 150 151 143 146 134 115 117 119 128 141 154 151 151 139 132 130 132 139 123 122 122 183 186 147 69 4 86 104 120 127 140 170 177 176 175 171
182 170 179 185 188 210 188 162 153 149 158 159 159 168 146 120 140 142 149 162 164 160 165 161 169 175 203 201 187 174 159 137 258 266 135 205 158 186 209 198 190 180 177
191 185 196 189 197 223 199 173 164 167 175 183 179 180 182 158 148 145 141 136 173 191 183 175 183 198 197 201 184 183 188 183 201 204 149 216 205 220 230 211 200 193 190
195 199 203 197 200 231 208 183 180 175 188 192 187 182 174 184 197 172 154 143 224 251 215 194 196 206 205 200 193 190 189 176 178 190 153 180 216 225 230 225 215 204 201
200 204 199 198 203 224 212 198 181 173 183 212 213 196 184 187 202 174 153 167 207 286 273 211 208 214 215 204 184 152 143 140 191 251 195 165 191 200 229 242 228 214 210
206 202 210 212 204 214 221 209 189 181 189 217 236 219 200 195 199 183 176 183 205 239 241 296 265 247 234 218 195 180 174 169 173 226 221 165 177 145 216 265 229 218 215
Height
1535 1536 1536 1537 1538 1539 1539 1540 1541 1541 1542 1543 1544 1545 1546 1547 1548 1549 1550 1551 1552 1553 1553 1554 1555 1555 1556 1557 1557 1558 1559 1559 1560 1561 1562 1563 1564 1565 1566 1567 1567 1568 1569
1536 1536 1537 1537 1538 1539 1540 1540 1541 1542 1542 1543 1544 1545 1545 1546 1548 1549 1549 1550 1551 1552 1553 1553 1553 1554 1554 1555 1556 1556 1557 1558 1559 1560 1560 1561 1562 1563 1564 1564 1565 1566 1567
1537 1537 1537 1538 1539 1539 1540 1540 1541 1542 1543 1543 1544 1544 1545 1546 1547 1548 1548 1549 1550 1551 1551 1552 1552 1552 1553 1553 1554 1554 1555 1556 1557 1558 1558 1559 1560 1561 1562 1562 1563 1564 1565
1537 1537 1537 1538 1539 1539 1540 1540 1541 1542 1542 1543 1543 1544 1544 1545 1546 1547 1547 1548 1548 1549 1550 1550 1550 1550 1550 1551 1551 1552 1553 1554 1554 1555 1556 1557 1557 1558 1559 1560 1560 1561 1562
1537 1538 1538 1538 1539 1539 1540 1540 1541 1541 1542 1543 1543 1543 1544 1544 1545 1545 1546 1546 1547 1547 1548 1548 1548 1548 1549 1549 1549 1550 1551 1551 1552 1553 1553 1554 1555 1555 1556 1557 1558 1559 1559
1538 1538 1538 1538 1539 1539 1539 1540 1540 1541 1542 1542 1542 1542 1543 1543 1543 1544 1544 1545 1545 1546 1546 1546 1546 1546 1546 1547 1547 1548 1548 1549 1550 1550 1551 1551 1552 1553 1553 1554 1555 1556 1556
1537 1537 1538 1538 1538 1538 1539 1539 1540 1540 1541 1541 1542 1542 1542 1542 1543 1543 1543 1544 1544 1544 1544 1544 1544 1544 1544 1545 1545 1545 1546 1547 1547 1548 1548 1548 1549 1550 1550 1551 1552 1553 1553
1537 1537 1537 1537 1538 1538 1538 1539 1539 1539 1540 1540 1541 1541 1541 1542 1541 1541 1542 1542 1542 1542 1542 1543 1543 1543 1543 1543 1543 1543 1544 1544 1544 1545 1545 1545 1546 1547 1547 1548 1549 1549 1550
1537 1537 1537 1537 1537 1537 1537 1538 1538 1538 1539 1539 1540 1540 1540 1540 1540 1540 1540 1540 1541 1541 1541 1541 1541 1541 1541 1540 1541 1541 1541 1541 1542 1542 1542 1543 1543 1544 1544 1545 1546 1546 1547
1536 1536 1536 1536 1536 1536 1536 1537 1537 1537 1537 1538 1538 1539 1539 1539 1539 1539 1539 1539 1539 1539 1539 1539 1539 1539 1539 1538 1538 1539 1539 1539 1539 1539 1539 1539 1540 1541 1541 1542 1542 1543 1543
1535 1535 1535 1535 1535 1535 1535 1535 1536 1536 1536 1536 1537 1537 1537 1537 1537 1538 1537 1537 1538 1537 1537 1537 1537 1537 1537 1537 1536 1536 1536 1536 1536 1535 1536 1536 1536 1537 1537 1538 1539 1539 1540
1533 1533 1534 1534 1534 1534 1534 1534 1534 1534 1534 1535 1535 1535 1535 1536 1536 1536 1536 1535 1535 1536 1535 1535 1535 1535 1535 1535 1534 1534 1534 1533 1532 1532 1532 1532 1532 1533 1533 1534 1535 1535 1536
1532 1532 1532 1532 1532 1532 1533 1533 1533 1533 1533 1533 1533 1533 1533 1534 1534 1534 1534 1533 1533 1533 1533 1533 1533 1533 1533 1533 1532 1532 1531 1530 1529 1529 1529 1528 1528 1529 1530 1530 1531 1532 1533
1530 1531 1531 1531 1531 1531 1531 1531 1531 1531 1531 1531 1531 1531 1531 1531 1531 1532 1532 1532 1531 1531 1531 1531 1531 1531 1530 1530 1529 1529 1528 1527 1527 1526 1526 1525 1526 1526 1527 1527 1528 1529 1530
1529 1529 1529 1529 1529 1529 1530 1529 1529 1529 1529 1529 1529 1529 1529 1529 1529 1529 1529 1530 1530 1529 1529 1528 1529 1528 1528 1528 1527 1527 1526 1525 1524 1524 1523 1523 1523 1524 1524 1525 1526 1527 1527
1528 1528 1528 1528 1528 1528 1528 1528 1527 1527 1527 1527 1527 1527 1527 1527 1527 1527 1527 1527 1527 1527 1526 1526 1526 1526 1526 1526 1525 1525 1524 1523 1523 1522 1522 1522 1522 1522 1522 1523 1523 1524 1525
1526 1526 1526 1526 1526 1526 1526 1526 1526 1525 1525 1525 1525 1525 1525 1525 1525 1525 1525 1524 1524 1524 1524 1524 1524 1524 1524 1524 1523 1523 1522 1521 1521 1520 1520 1520 1520 1521 1521 1521 1522 1522 1523
1524 1524 1525 1525 1525 1524 1524 1524 1524 1524 1523 1523 1523 1523 1523 1523 1523 1523 1522 1522 1522 1522 1522 1521 1522 1522 1522 1522 1521 1521 1520 1520 1519 1519 1519 1519 1519 1519 1520 1520 1521 1521 1522
1523 1523 1523 1523 1523 1523 1523 1523 1522 1522 1521 1521 1521 1521 1521 1521 1521 1521 1520 1520 1520 1520 1520 1520 1520 1520 1520 1520 1520 1519 1519 1518 1518 1518 1518 1518 1518 1518 1518 1519 1519 1520 1520
1521 1521 1522 1522 1522 1521 1521 1521 1520 1520 1519 1519 1519 1519 1519 1519 1519 1518 1518 1518 1518 1518 1518 1518 1518 1518 1518 1518 1518 1518 1518 1517 1517 1517 1517 1517 1517 1517 1517 1518 1518 1518 1519
1519 1519 1520 1520 1520 1520 1519 1519 1518 1518 1517 1517 1517 1517 1517 1516 1516 1516 1516 1516 1516 1516 1516 1516 1516 1516 1516 1516 1516 1516 1516 1516 1516 1517 1516 1516 1517 1517 1516 1516 1517 1517 1517
1517 1517 1517 1518 1517 1517 1517 1517 1516 1515 1515 1515 1514 1514 1514 1514 1514 1514 1514 1514 1515 1514 1514 1514 1514 1514 1514 1515 1515 1515 1515 1514 1514 1516 1515 1516 1516 1516 1516 1516 1516 1516 1516
1515 1515 1515 1515 1515 1515 1515 1514 1514 1513 1513 1512 1512 1512 1512 1512 1512 1512 1512 1512 1512 1512 1513 1513 1512 1512 1512 1513 1513 1513 1513 1513 1513 1513 1514 1514 1514 1514 1514 1514 1515 1515 1515
1512 1512 1513 1513 1513 1512 1512 1511 1511 1511 1510 1510 1510 1509 1509 1509 1510 1510 1510 1510 1510 1510 1510 1510 1510 1511 1511 1511 1511 1511 1511 1511 1512 1512 1512 1512 1512 1513 1513 1513 1513 1513 1513
1509 1510 1510 1510 1509 1509 1509 1509 1508 1508 1507 1507 1507 1507 1507 1507 1508 1508 1508 1507 1507 1508 1508 1508 1508 1508 1508 1509 1509 1509 1509 1509 1509 1509 1510 1510 1510 1510 1511 1511 1511 1511 1511
1507 1507 1507 1506 1506 1506 1506 1505 1505 1505 1504 1504 1504 1504 1505 1505 1505 1505 1505 1505 1505 1505 1505 1505 1506 1506 1506 1506 1506 1506 1507 1507 1507 1507 1508 1508 1508 1508 1508 1509 1509 1509 1509